Other Public Products
Issued by NWS Grand Forks, ND

Home | Current Version | Previous Version | Text Only | Print | Product List | Glossary On
Versions: 1 2 3 4 5 6 7 8 9 10 11 12 13 14 15 16 17 18 19 20 21 22 23 24 25 26 27 28 29 30 31 32 33 34 35 36 37 38 39 40 41 42 43 44 45 46 47 48 49 50
000
FPUS83 KFGF 201631
OPUFGF
PRAIRIE TO PINES WEATHER ROUNDUP
NATIONAL WEATHER SERVICE EASTERN NORTH DAKOTA/GRAND FORKS ND
1000 AM CST MON NOV 20 2017

 **SATELLITE DATA USED TO AUGMENT SKY COVER AT AUTOMATED STATIONS**
 *****  WEATHER ACROSS EASTERN NORTH DAKOTA  *****

CITY           SKY/WX    TMP DP  RH WIND       PRES   REMARKS
GRAND FORKS    CLOUDY    32  28  85 S13       29.33F WCI  22
GRND FORKS AFB CLOUDY    34  27  73 SW12      29.33F
GRND FORKS NWS NOT AVBL
BUXTON           N/A     31  27  83 S9          N/A  WCI  23
DEVILS LAKE    FAIR      34  25  69 W10       29.34R
FARGO          FAIR      35  25  66 S16       29.40F
WAHPETON ARPT  NOT AVBL
$$

 *****  WEATHER ACROSS CENTRAL AND WESTERN NORTH DAKOTA  *****

CITY           SKY/WX    TMP DP  RH WIND       PRES   REMARKS
JAMESTOWN      FAIR      37  25  61 SW8       29.37F
BISMARCK       FAIR      44  29  55 CALM      29.43S
MINOT          FAIR      45  21  38 SW18      29.33S
MINOT AFB      FAIR      40  24  51 W10       29.32S
GARRISON         N/A     39  27  62 W13       29.38S
WILLISTON      FAIR      38  22  52 S5        29.41R
DICKINSON      FAIR      45  19  35 W12       29.44R
HETTINGER      FAIR      45  16  31 W12       29.51R
$$

 *****  OTHER OBSERVATIONS NORTHEAST NORTH DAKOTA  *****

CITY           SKY/WX    TMP DP  RH WIND       PRES   REMARKS
WALHALLA       FAIR      37  27  65 SW9G16    29.26F
LANGDON        FAIR      32  28  86 SW14      29.28F WCI  22
CAVALIER       FAIR      32  25  74 S8        29.27F WCI  25
GRAFTON        FAIR      32  28  86 S12       29.33S WCI  23
CANDO          FAIR      37  27  65 W10       29.33S
FORT TOTTEN      N/A     39  23  53 W7        29.95S
ROLLA          FAIR      32  25  74 SW10      29.28F WCI  24
RUGBY          FAIR      36  27  69 SW13      29.31S
 ***** THE ABOVE OBSERVATIONS ARE NON NWS ARE NOT QUALITY
        CONTROLLED AND MAY MIS-REPORT RAIN FOR SNOW...
$$

 *****  OTHER OBSERVATIONS SOUTHEAST NORTH DAKOTA *****

CITY           SKY/WX    TMP DP  RH WIND       PRES   REMARKS
COOPERSTOWN    FAIR      36  27  69 SW9       29.36R
VALLEY CITY    FAIR      34  27  75 SW10G17   29.40F
OAKES            N/A     34  25  69 SW14      29.44S WCI  24
GWINNER          N/A     37  27  65 SW14      29.42S
SHEYENNE NWR     N/A     35  27  71 SW8       29.95S
BUFFALO          N/A     34  23  65 S14         N/A  WCI  24
WYNDMERE       NOT AVBL
 ***** THE ABOVE OBSERVATIONS ARE NON NWS ARE NOT QUALITY
       CONTROLLED AND MAY MIS-REPORT RAIN FOR SNOW...
$$

  *****  WEATHER ACROSS NORTHERN MINNESOTA  *****

CITY           SKY/WX    TMP DP  RH WIND       PRES   REMARKS
FLAG ISLAND    FAIR      28  25  86 S17       29.30F WCI  16
WARROAD        FAIR      36  28  75 S7        29.31F
ROSEAU         FAIR      36  28  75 S9        29.30S
HALLOCK        FAIR      30  28  93 S16       29.29F WCI  19
THF RVR FALLS  FAIR      35  26  69 SW17      29.34F WCI  25
HALSTAD          N/A     34  25  69 SW14        N/A  WCI  25
FOSSTON        FAIR      37  25  60 S17       29.37F
BAUDETTE       FAIR      32  25  75 S10       29.34F WCI  24
WASKISH        FAIR      37  27  65 S8G17     29.36F
CROOKSTON      FAIR      36  27  69 S16       29.36F
$$
  *****  WEATHER ACROSS CENTRAL AND WEST MINNESOTA  *****

CITY           SKY/WX    TMP DP  RH WIND       PRES   REMARKS
BEMIDJI        FAIR      33  26  77 S7        29.39F
PARK RAPIDS    FAIR      31  26  82 S9        29.43F WCI  23
WADENA         FAIR      37  27  65 S9        29.44
DETROIT LAKES  FAIR      36  28  75 S8        29.41F
MOORHEAD       FAIR      34  25  69 S12       29.41F
FERGUS FALLS   FAIR      36  27  69 S13       29.47F
ELBOW LAKE     FAIR      34  27  75 S12       29.46F
MORRIS MN      FAIR      37  28  70 S10       29.46F
STAPLES        FAIR      34  27  75 S12       29.45F
WHEATON        FAIR      36  27  69 S8        29.46F
$$
  *****  WEATHER ELSEWHERE ACROSS MINNESOTA  *****

CITY           SKY/WX    TMP DP  RH WIND       PRES   REMARKS
DULUTH         FAIR      27  25  92 SE7       29.53F WCI  19
INTRNTL FALLS  PTSUNNY   28  22  78 SE6       29.42F WCI  22
ELY            FAIR      30  25  80 S7        29.49F WCI  23
CLOQUET        FAIR      28  23  80 SE3       29.52F
BRAINERD       FAIR      38  28  67 S14       29.48F
HIBBING        FAIR      26  23  88 SE7       29.50F WCI  18
ALEXANDRIA     FAIR      36  27  69 MISG      29.48F
SAINT CLOUD    FAIR      32  29  88 SE8       29.53F WCI  25
MINNEAPOLIS    PTSUNNY   37  29  72 S8        29.58F
$$

  *****  WEATHER ACROSS SOUTH DAKOTA  *****

CITY           SKY/WX    TMP DP  RH WIND       PRES   REMARKS
SIOUX FALLS    CLOUDY    40  26  57 SW8       29.57F
BROOKINGS      FAIR      33  26  75 S5        29.54
WATERTOWN      FAIR      33  27  78 S8        29.50F
HURON          FAIR      35  26  69 S8        29.53F
SISSETON         N/A     42  25  50 SW17      29.42F
ABERDEEN       FAIR      31  26  82 S9        29.49F WCI  23
MITCHELL       FAIR      38  26  62 S5        29.56F
PIERRE         FAIR      38  23  55 W6        29.52F
MOBRIDGE       FAIR      37  27  67 SE5       29.46F
RAPID CITY     FAIR      56  17  21 W13       29.59R
$$

  *****  SOME WEATHER IN NEARBY STATES *****

CITY           SKY/WX    TMP DP  RH WIND       PRES   REMARKS
GLASGOW MT     FAIR      43  22  43 NW18      29.50R
GREAT FALLS MT FAIR      44  27  51 SW26      29.59F
CHEYENNE WY    FAIR      49   0  13 S7        29.83S
SCOTTSBLUFF NE FAIR      59   3  10 W31G46    29.70S
OMAHA NE       PTSUNNY   48  25  40 SW14      29.73S
DES MOINES IA  PTSUNNY   50  27  40 SW16G24   29.74F
DAVENPORT IA   FAIR      46  29  51 SW18      29.86F
CHICAGO IL     FAIR      43  27  53 SW18G24   29.89F
EAU CLAIRE WI  FAIR      36  28  73 S9        29.64F
LA CROSSE WI   FAIR      41  29  62 S12       29.70F
$$

  *****  SOME NATIONAL WEATHER *****

CITY           SKY/WX    TMP DP  RH WIND       PRES   REMARKS
LA GUARDIA NY  PTSUNNY   42  23  46 W14G25    30.04S
RALEIGH NC     FAIR      48  21  34 NW8G17    30.27F
ATLANTA GA     FAIR      51  27  39 SE6       30.24S
NEW ORLEANS LA PTSUNNY   55  40  56 E8        30.24F
OKLAHOMA CITY  FAIR      51  29  42 S25G31    30.04F
ALBUQUERQUE NM PTSUNNY   38   8  29 CALM      30.18F
SALT LAKE CITY PTSUNNY   39  30  70 CALM      30.08R
LOS ANGELES CA PTSUNNY   60  37  42 CALM      30.05R
BOISE ID       CLOUDY    46  31  55 SE7       29.98R
SEATTLE WA     RAIN      48  47  96 NW13      29.55R FOG
$$

*** WEATHER ACROSS MANITOBA...SASKATCHEWAN AND ONTARIO ***
                ***ONTARIO***

CITY           SKY/WX    TMP DP  RH WIND       PRES   REMARKS
GERALDTON      MOSUNNY   14   9  79 S9        29.64F WCI   2
THUNDER BAY    CLOUDY    16  12  86 SW3       29.64F
SIOUX LOOKOUT  CLOUDY    18  14  86 SE7       29.44F WCI   8
TORONTO        PTSUNNY   36  25  64 SW14      29.95S
BIG TROUT LK   SUNNY      5   1  85 W8        29.56F WCI  -8
PICKLE LAKE    CLOUDY     9   5  85 SE5       29.52F WCI   0
DRYDEN         CLOUDY    21  19  93 SE13      29.39F WCI   9
KENORA         CLOUDY    27  21  80 SE13      29.31F WCI  16
$$
                *** MANITOBA***

CITY           SKY/WX    TMP DP  RH WIND       PRES   REMARKS
BRANDON        PTSUNNY   32  25  74 W13       29.21S WCI  22
DAUPHIN        MOSUNNY   19  16  86 NW8       29.19F WCI   9
ISLAND LAKE    PTSUNNY    7   3  85 E9        29.51F WCI  -7
PILOT MOUND      N/A     32  25  74 SW13        N/A  WCI  22
THE PAS        LGT SNOW  10   5  79 E12G20    29.36S DRFTSNOWWCI  -4
THOMPSON       MOCLDY    -2  -8  78 NE7       29.56S WCI -16
WINNIPEG       PTSUNNY   30  25  80 S16       29.22F WCI  19
LYNN LAKE      CLOUDY    -4  -6  92 NE6       29.55R WCI -16
CHURCHILL      FLURRIES  19  18  93 NW10      29.55S WCI   8
GILLAM         CLOUDY     3   0  85 W5        29.57  WCI  -6
$$
                ***SASKATCHEWAN***

CITY           SKY/WX    TMP DP  RH WIND       PRES   REMARKS
ESTEVAN        CLOUDY    39  27  60 W21G32    29.32R
KINDERSLEY     MOCLDY    14   9  79 NW26G37   29.58R BLWGSNOWWCI  -6
LLOYDMINSTER   LGT SNOW   7   3  85 NW18G26   29.59R BLWGSNOWWCI -12
PRINCE ALBERT  MOCLDY    16  12  86 W9        29.44R WCI   4
REGINA         FLURRIES  25  21  86 NW36G48   29.38R WCI   7
YORKTON        PTSUNNY   28  23  80 NW12      29.21R W



USA.gov is the U.S. government's official web portal to all federal, state and local government web resources and services.